{"data":{"norad_id":59719,"intl_designator":"2024-088M","name":"STARLINK-11096 [DTC]","alt_names":[],"object_type":"PAYLOAD","status":"ACTIVE","operator":null,"country":"US","launch_date":"2024-05-10","launch_site_code":"AFWTR","launch_vehicle":null,"mission":null,"orbit_class":"UNKNOWN","rcs_meters":null,"size_class":null,"mass_kg":null,"dimensions":null,"purposes":["comms"],"wikipedia_slug":null,"has_3d_model":false,"image_url":null,"decayed_at":null,"tle_current":{"epoch":"2026-05-24T21:05:11.541120Z","epoch_age_seconds":89129,"freshness":"FRESH","line1":"1 59719U 24088M   26144.87860580 -.00000930  00000+0 -28211-5 0  9994","line2":"2 59719  53.1600 311.0419 0000735  96.4672 263.6429 15.69709175118233","mean_motion":15.69709175,"eccentricity":7.35e-5,"inclination_deg":53.16,"raan_deg":311.0419,"arg_perigee_deg":96.4672,"mean_anomaly_deg":263.6429,"bstar":-2.8211e-6,"rev_number":11823,"period_min":91.736738431181,"perigee_km":359.23387809585,"apogee_km":360.2243444142,"semimajor_km":6737.866111255,"source":"CELESTRAK","updated_at":"2026-05-25T13:38:19.048086Z"}}}